Terminal Aerodrome Forecast
Issued by NWS Tallahassee, FL

Home | Current Version | Previous Version | Text Only | Print | Product List | Glossary On
Versions: 1 2 3 4 5 6 7 8 9 10 11 12 13 14 15 16 17 18 19
000
FTUS42 KTAE 191218 AAA
TAFTLH
TAF AMD
KTLH 191218Z 1912/2012 00000KT 3SM BR BKN015
     FM191700 21013G20KT 2SM +TSRA SCT003 BKN020CB
     FM192300 22010G15KT P6SM OVC015
     FM200300 21005KT P6SM SCT250
     FM200600 19004KT 5SM BR OVC007
     FM200900 00000KT 2SM BR OVC004=

USA.gov is the U.S. government's official web portal to all federal, state and local government web resources and services.